• Join FlightAware (Why Join?)
  • Login
  • US Flag 
01:14AM EDT


 

Airport Tracker/Info


-or-


 

Live Flight TrackerFlight Track Log ✈ AWE565 ✈ 26-Jun-2013 ✈ KPHX - KLAS

Flight Track Log - Related Links

Times and Time Zones

All times are in EDT time to prevent confusion due to time zone crossing. See the AWE565 flight status page for this flight to view local times or setup timezone preferences in your user account.

Time Position Orientation Groundspeed Altitude Reporting Facility
EDT Latitude Longitude Course Direction KTS MPH feet Rate Location/Type
01:47AM 33.4390 -112.0020 90° East 25 29  Level FlightAware
01:49AM 33.4390 -111.9960 90° East 25 29 240 Level FlightAware
01:50AM 33.4390 -111.9950 90° East 27 31 360 Level FlightAware
01:50AM 33.4390 -111.9900 90° East 31 36 360 Level FlightAware
01:53AM 33.6154 -112.1154 320° Northwest  Level FlightAware Approximate
01:53AM 33.4310 -112.0240 334° Northwest 174 200 1,500  Level FlightAware
01:54AM 33.7046 -112.1526 334° Northwest  Level FlightAware Approximate
01:54AM 33.4320 -112.0520 272° West 173 199 2,800  Level FlightAware
01:54AM 33.4320 -112.0680 270° West 184 212 3,200 1,140 Climbing FlightAware
01:55AM 33.4330 -112.0980 272° West 217 250 3,600 1,500 Climbing FlightAware
01:55AM 33.4350 -112.1330 274° West 233 268 4,600 2,100 Climbing FlightAware
01:56AM 33.4390 -112.1690 278° West 244 281 5,600 2,040 Climbing FlightAware
01:56AM 33.4520 -112.1860 313° West 256 295 6,100 1,920 Climbing FlightAware
01:56AM 33.4700 -112.1920 344° North 268 308 6,600 2,040 Climbing FlightAware
01:57AM 33.4980 -112.1880 North 282 325 7,400 2,280 Climbing FlightAware
01:57AM 33.5240 -112.1810 13° North 289 333 8,200 1,620 Climbing FlightAware
01:57AM 33.5360 -112.1800 North 291 335 8,500 2,160 Climbing FlightAware
01:58AM 33.5880 -112.2140 331° Northwest 305 351 10,200 2,040 Climbing FlightAware
01:58AM 33.6310 -112.2720 312° West 342 394 11,100 1,440 Climbing FlightAware
01:59AM 33.6750 -112.3310 312° West 366 421 12,200 1,560 Climbing FlightAware
02:00AM 33.7230 -112.3980 311° West 388 447 13,300 1,380 Climbing FlightAware
02:00AM 33.7750 -112.4600 315° West 411 473 14,100 1,740 Climbing FlightAware
02:01AM 33.8440 -112.5270 321° Northwest 411 473 15,800 1,980 Climbing FlightAware
02:02AM 33.9030 -112.5840 321° Northwest 418 481 17,000 1,740 Climbing FlightAware
02:03AM 33.9710 -112.6500 321° Northwest 430 495 18,300 1,740 Climbing FlightAware
02:03AM 34.0340 -112.7120 321° Northwest 434 499 19,500 1,740 Climbing FlightAware
02:04AM 34.0970 -112.7740 321° Northwest 438 504 20,700 1,620 Climbing FlightAware
02:05AM 34.1610 -112.8360 321° Northwest 442 509 21,700 1,320 Climbing FlightAware
02:05AM 34.2380 -112.9120 321° Northwest 453 521 22,700 1,260 Climbing FlightAware
02:06AM 34.3080 -112.9810 321° Northwest 460 529 23,700 1,500 Climbing FlightAware
02:07AM 34.3790 -113.0500 321° Northwest 459 528 24,900 1,560 Climbing FlightAware
02:07AM 34.4370 -113.1080 320° Northwest 460 529 25,800 780 Climbing FlightAware
02:08AM 34.5120 -113.1820 321° Northwest 469 540 26,000 120 Climbing FlightAware
02:09AM 34.5870 -113.2560 321° Northwest 470 541 26,000  Level FlightAware
02:10AM 34.6580 -113.3270 321° Northwest 471 542 26,000  Level FlightAware
02:10AM 34.7240 -113.3930 321° Northwest 470 541 26,000  Level FlightAware
02:11AM 34.8230 -113.4900 321° Northwest 470 541 26,000  Level FlightAware
02:12AM 34.8950 -113.5580 322° Northwest 469 540 26,000  Level FlightAware
02:13AM 34.9530 -113.6140 322° Northwest 470 541 26,000  Level FlightAware
02:13AM 35.0330 -113.6910 322° Northwest 468 539 26,000 -480 Level FlightAware
02:14AM 35.1070 -113.7630 321° Northwest 459 528 25,300 -1,020 Descending FlightAware
02:14AM 35.1460 -113.8000 322° Northwest 457 526 24,900 -1,800 Descending FlightAware
02:16AM 35.2580 -113.9080 322° Northwest 446 513 22,600 -2,160 Descending FlightAware
02:16AM 35.3320 -113.9810 321° Northwest 436 502 20,800 -2,400 Descending FlightAware
02:17AM 35.4020 -114.0500 321° Northwest 421 484 19,000 -2,400 Descending FlightAware
02:18AM 35.4610 -114.1070 322° Northwest 410 472 17,500 -2,340 Descending FlightAware
02:19AM 35.5260 -114.1710 321° Northwest 398 458 15,800 -2,280 Descending FlightAware
02:19AM 35.5830 -114.2260 322° Northwest 385 443 14,400 -1,980 Descending FlightAware
02:20AM 35.6460 -114.2890 321° Northwest 370 426 13,000 -1,560 Descending FlightAware
02:21AM 35.6910 -114.3480 313° West 356 410 12,200 -1,440 Descending FlightAware
02:21AM 35.7370 -114.4180 309° West 343 395 11,000 -1,560 Descending FlightAware
02:22AM 35.7750 -114.4780 308° West 335 386 10,000 -780 Descending FlightAware
02:23AM 35.8130 -114.5360 309° West 311 358 10,000  Level FlightAware
02:23AM 35.8500 -114.5950 308° West 292 336 10,000 -180 Level FlightAware
02:24AM 35.8720 -114.6290 309° West 284 327 9,800 -1,080 Descending FlightAware
02:24AM 35.8970 -114.6690 308° West 289 333 9,000 -1,440 Descending FlightAware
02:25AM 35.9100 -114.6890 309° West 285 328 8,700 -1,500 Descending FlightAware
02:25AM 35.9340 -114.7260 309° West 285 328 7,900 -1,620 Descending FlightAware
02:26AM 35.9560 -114.7610 308° West 283 326 7,200 -1,500 Descending FlightAware
02:26AM 35.9660 -114.7760 309° West 282 325 6,900 -960 Descending FlightAware
02:26AM 35.9870 -114.8090 308° West 270 311 6,600 -480 Descending FlightAware
02:27AM 36.0070 -114.8410 308° West 245 282 6,500 -780 Descending FlightAware
02:27AM 36.0260 -114.8720 307° West 242 278 5,900 -1,440 Descending FlightAware
02:27AM 36.0390 -114.8920 309° West 244 281 5,400 -1,320 Descending FlightAware
02:28AM 36.0580 -114.9220 308° West 234 269 4,900 -720 Descending FlightAware
02:28AM 36.0720 -114.9490 303° West 198 228 4,800 -600 Descending FlightAware
02:29AM 36.0730 -114.9650 274° West 192 221 4,500 -1,320 Descending FlightAware
02:29AM 36.0730 -114.9910 270° West 187 215 4,000 -1,020 Descending FlightAware
02:29AM 36.0740 -115.0220 272° West 175 201 3,600 -720 Descending FlightAware
02:30AM 36.0740 -115.0350 270° West 168 193 3,400 -840 Descending FlightAware
02:30AM 36.0740 -115.0620 270° West 153 176 3,000 -900 Descending FlightAware
02:30AM 36.0740 -115.0770 270° West 151 174 2,800 -780 Descending FlightAware
02:31AM 36.0740 -115.1040 270° West 151 174 2,400 -780 Descending FlightAware
02:31AM 36.0740 -115.1270 270° West 152 175 2,100 -720 Descending FlightAware
02:32AM 36.0740 -115.1490 270° West 52 60 -3,720 Descending FlightAware
02:32AM 36.0740 -115.1560 270° West 52 60  Level FlightAware
02:40AM 36.0667 -115.1500 270° West  Level FlightAware Approximate